SCP
1 1 2 2 2 1 1 1 1 1 1 1 1 1 0 0 1 1 1 1 1 1 1 1 1 1 1 1 1 1 1 1 1 1 1 1 0 0 1 1 1 1 1
2 2 2 2 2 2 1 1 1 1 1 1 1 1 1 1 1 1 1 1 1 1 1 1 1 1 1 1 1 1 1 1 1 1 1 1 1 0 0 1 1 1 0
2 2 2 2 2 2 2 2 1 1 1 1 1 1 1 1 1 1 1 1 1 1 1 1 1 1 1 1 1 1 1 1 1 1 1 1 1 1 0 0 0 0 0
2 2 3 3 3 3 2 2 2 1 1 1 1 1 1 1 1 1 1 1 1 1 1 1 2 2 1 1 1 1 1 1 1 1 1 1 1 1 1 0 0 0 0
2 2 3 3 3 3 3 2 2 2 1 1 1 1 1 1 2 1 1 1 1 1 1 2 2 2 2 2 2 1 1 1 1 1 1 1 1 1 1 0 0 0 0
2 2 3 3 4 4 3 3 2 2 2 1 1 1 1 1 1 1 1 1 1 2 2 2 2 2 2 2 2 2 2 2 2 1 1 1 1 1 1 1 0 0 0
2 2 3 3 3 4 4 3 3 2 2 1 1 1 1 1 1 1 1 1 2 2 2 2 2 2 2 2 2 2 2 2 2 2 2 1 1 1 1 1 0 0 0
2 2 3 3 3 3 3 3 3 3 2 2 1 1 1 1 1 1 1 2 2 2 2 2 2 2 2 2 2 2 2 2 2 2 2 2 1 1 1 1 1 0 0
3 2 2 2 2 3 3 3 3 3 2 2 2 2 1 1 1 1 2 2 2 2 2 2 3 3 3 3 2 2 2 2 2 2 2 2 1 1 1 1 1 1 1
3 3 2 2 2 3 3 3 3 3 2 2 2 2 2 2 2 2 2 2 2 2 2 2 3 3 3 3 3 2 2 1 1 2 2 2 2 1 1 1 1 1 1
3 3 3 3 3 3 4 4 3 2 2 2 1 1 1 2 2 2 2 2 2 2 2 2 2 3 3 3 3 2 2 1 1 1 1 1 1 1 1 1 1 1 1
3 4 4 4 3 3 4 4 3 2 2 2 2 1 1 1 1 1 1 1 2 2 2 2 2 2 3 3 3 2 2 1 1 1 1 1 1 1 1 1 1 1 1
4 5 5 5 4 4 4 4 3 2 2 2 2 2 1 1 1 1 1 1 1 2 2 3 2 2 2 2 2 2 1 1 1 1 1 1 1 1 1 1 1 1 1
4 5 7 7 6 5 5 5 4 2 2 2 2 1 1 1 1 1 1 1 1 2 2 2 2 2 2 2 1 1 1 1 1 1 1 1 1 1 1 1 1 1 1
3 5 7 7 7 6 6 5 4 3 2 2 2 1 1 1 1 1 1 1 2 2 2 2 2 2 1 1 1 1 1 1 1 1 0 0 0 0 1 1 1 1 1
3 5 6 7 6 6 6 5 5 3 3 2 2 1 1 1 1 1 1 1 2 2 2 2 2 2 1 1 1 1 1 1 0 0 0 0 0 0 0 0 0 0 0
4 5 6 6 6 6 6 6 5 3 3 2 2 2 1 1 1 1 1 1 2 2 2 2 1 1 1 1 1 1 1 1 0 0 0 0 0 0 0 0 0 0 0
4 5 5 5 5 5 5 5 5 4 3 3 2 2 2 1 1 1 1 1 1 2 2 1 1 1 1 1 1 1 1 0 0 0 0 0 0 0 0 0 0 0 0
4 5 5 5 5 5 5 5 5 5 4 4 3 2 2 1 1 1 1 1 1 1 1 1 1 1 1 1 1 1 1 0 0 0 0 0 0 0 0 0 0 0 0
5 5 5 5 5 5 5 6 6 5 5 4 3 2 2 2 1 1 1 1 1 1 1 1 1 1 1 1 1 1 1 1 1 0 0 0 0 0 0 0 0 0 0
5 5 5 5 4 4 4 5 5 4 4 3 2 2 2 2 1 1 1 1 1 1 1 1 0 0 0 1 1 1 1 1 1 1 0 0 0 0 0 0 0 0 0
5 5 4 4 4 3 2 3 3 3 2 2 2 2 1 1 1 1 1 1 1 1 1 1 0 0 0 1 1 1 1 1 0 0 0 0 0 0 0 0 0 0 0
5 5 4 4 3 2 1 2 2 2 2 2 2 2 1 1 1 1 0 0 0 0 0 1 0 0 0 1 1 0 0 0 0 0 0 0 0 0 0 0 0 0 0
6 5 4 4 3 2 1 1 2 2 3 3 3 2 2 1 1 1 1 0 0 0 0 0 0 0 0 0 0 0 0 0 0 0 0 0 0 0 0 0 0 0 0
8 7 6 5 5 3 1 1 2 3 3 4 4 3 2 1 1 0 0 0 0 0 0 0 0 0 0 0 0 0 0 0 0 0 0 0 0 0 0 0 0 0 0
9 8 7 7 6 4 2 1 2 3 4 5 5 4 2 1 0 0 0 0 0 0 0 0 0 0 0 0 0 0 0 0 0 0 0 0 0 0 0 0 0 0 0
Wind_Speed
1 1 1 1 2 2 2 2 2 1 2 2 2 2 1 1 2 5 6 12 12 12 12 12 12 11 11 11 11 10 10 10 9 9 9 9 9 9 9 8 8 8 8
1 0 0 1 1 1 1 1 2 2 2 1 2 2 2 2 2 4 6 8 12 12 12 13 13 13 13 12 12 12 11 11 10 10 10 10 10 10 10 9 9 9 8
1 1 1 1 1 1 1 1 2 2 3 3 3 3 2 3 2 4 5 5 7 11 13 14 14 14 14 14 14 13 13 12 11 11 11 11 10 10 10 10 10 9 9
1 1 2 1 2 2 1 2 2 2 2 1 2 2 3 3 4 4 4 6 6 7 11 15 15 14 15 15 14 14 13 13 12 12 12 12 12 11 10 10 10 9 9
1 1 2 1 2 2 1 2 1 1 1 2 3 3 3 3 4 6 6 6 6 6 6 12 16 15 14 14 13 13 13 13 13 13 13 13 13 12 12 12 11 11 10
1 1 1 1 1 1 1 1 1 2 2 3 5 3 2 3 3 4 5 5 5 6 6 7 8 9 12 11 11 12 12 12 12 12 13 13 13 13 12 12 12 12 12
1 1 2 1 1 1 2 2 2 2 3 2 2 3 3 4 4 3 3 3 3 4 4 5 6 5 5 10 9 9 10 10 10 10 10 11 11 10 10 11 12 12 12
2 2 1 1 2 1 2 3 3 2 3 2 1 1 2 2 2 3 1 1 2 2 2 4 4 4 4 4 5 8 8 9 9 9 9 8 9 8 9 10 11 11 11
2 2 1 2 2 2 2 3 3 3 3 2 2 2 1 2 1 1 1 1 1 1 1 2 3 3 3 3 4 7 9 8 8 9 8 8 8 8 8 9 9 10 11
2 2 2 2 2 2 2 3 2 2 2 2 2 2 2 1 1 1 1 0 1 1 1 1 1 1 2 2 2 5 8 8 7 6 6 6 6 6 7 8 9 10 10
2 2 2 1 1 2 2 2 2 2 2 2 2 2 2 2 2 2 1 1 1 1 2 1 0 1 2 2 2 3 5 5 4 4 4 4 4 5 5 6 7 8 8
1 1 1 1 1 1 2 2 2 2 2 2 2 1 1 1 2 2 2 1 0 1 1 1 1 1 2 2 2 5 6 6 4 3 2 2 1 2 2 2 3 3 4
0 0 1 1 1 1 2 2 2 2 2 2 2 1 2 2 1 1 1 1 1 0 0 1 1 1 2 3 4 7 7 7 5 4 3 2 1 1 1 1 0 0 1
1 1 1 1 1 1 2 2 2 2 1 1 2 2 2 1 1 1 1 1 1 1 0 1 2 2 3 4 6 7 7 10 9 7 6 5 5 5 4 4 4 3 3
1 2 2 2 2 2 3 2 2 2 2 1 2 2 1 1 1 1 1 1 2 1 0 1 1 3 3 4 6 5 6 10 11 9 8 7 7 6 6 6 6 5 5
3 3 3 2 2 2 3 2 2 2 2 2 1 2 2 2 1 1 1 0 0 1 1 1 2 2 3 4 7 6 7 11 11 10 9 9 9 8 8 7 7 7 6
2 2 2 2 2 2 2 2 3 3 3 3 3 3 3 3 3 2 2 2 1 2 2 1 2 2 4 5 5 4 4 5 5 8 9 10 10 10 10 10 9 8 8
2 2 2 3 3 3 3 3 4 4 4 5 4 4 4 4 4 3 2 2 2 2 3 3 2 2 4 4 4 4 4 4 4 8 10 11 11 11 11 10 10 10 10
2 3 3 3 3 3 4 4 4 4 5 5 5 5 5 5 4 4 3 3 2 3 3 4 3 3 3 3 3 4 5 3 4 7 9 10 11 11 11 11 11 10 10
3 3 3 3 3 4 5 4 4 4 5 6 6 6 6 6 6 4 4 4 4 4 4 4 4 3 2 2 2 3 3 2 3 4 5 7 9 11 11 11 11 11 10
4 4 3 4 4 5 6 5 4 5 5 5 6 7 8 9 10 7 5 4 4 4 4 4 4 3 3 2 2 1 3 2 2 2 3 3 4 4 5 7 9 10 9
4 4 5 6 7 6 8 9 6 5 5 5 5 5 6 8 9 10 10 9 8 5 4 3 3 3 3 2 2 2 2 1 1 1 2 2 3 3 3 3 6 8 8
4 5 6 6 7 7 10 10 9 5 6 6 6 5 6 7 7 5 6 8 9 9 7 4 4 3 3 2 2 2 1 1 2 1 1 2 2 3 3 5 6 6 6
4 4 5 6 6 7 9 9 7 5 6 6 6 6 6 6 7 6 6 7 7 7 6 5 4 4 4 3 2 1 1 2 2 1 2 1 2 2 3 3 5 5 4
4 5 5 5 6 6 7 8 6 3 5 6 7 7 6 6 8 8 5 5 6 5 7 8 7 6 5 4 3 2 2 2 2 1 1 1 1 2 2 2 3 4 3
5 5 5 5 5 5 7 8 7 2 4 5 5 6 9 8 8 8 5 5 5 4 3 4 4 4 4 4 5 3 2 1 1 1 2 1 0 1 1 2 2 3 2
Wind_Direction
91 80 90 180 207 185 178 186 194 216 228 225 231 225 236 222 131 135 148 169 172 177 183 188 192 195 197 198 200 201 201 201 199 198 200 201 202 202 201 204 206 206 204
69 40 221 262 258 214 189 203 214 191 217 230 235 220 204 219 168 153 154 175 183 187 191 195 199 202 204 204 205 206 207 209 207 206 207 208 209 209 210 212 213 213 212
127 248 265 241 262 250 190 214 258 226 223 221 223 225 205 216 194 179 170 173 185 198 202 203 204 205 207 208 209 210 211 212 212 212 212 212 213 214 217 218 219 219 219
182 250 261 248 261 251 218 208 240 251 254 254 242 229 212 201 200 201 192 190 189 195 204 208 207 208 211 213 215 216 214 216 217 217 217 216 215 215 217 221 223 223 223
242 239 262 258 253 257 257 256 204 253 256 264 258 236 227 219 202 214 209 207 198 188 186 199 206 209 211 213 217 219 219 220 221 221 221 220 218 217 218 223 226 226 226
280 291 272 261 282 298 296 288 295 276 263 258 269 270 263 255 235 217 214 210 199 189 186 178 192 208 210 212 215 218 221 220 221 223 225 223 220 219 219 222 226 227 227
302 287 309 330 293 287 290 297 282 269 255 246 272 286 271 244 236 230 231 216 191 185 170 162 170 182 192 208 213 216 219 219 217 218 220 220 222 221 219 221 226 227 226
276 259 234 269 269 262 271 276 267 259 260 236 215 256 287 295 277 259 241 202 198 158 150 159 155 168 171 176 193 206 212 215 216 216 217 217 217 217 220 223 225 226 226
248 281 271 272 278 258 253 254 258 243 252 270 225 199 215 238 275 275 229 184 135 126 136 125 140 158 172 165 177 200 206 213 217 217 216 216 218 218 223 225 226 227 227
252 254 262 260 281 290 280 266 264 264 256 261 256 223 229 237 205 286 316 63 163 121 78 88 122 142 156 155 133 159 189 204 209 217 218 218 218 220 227 232 234 232 228
244 260 257 276 282 289 301 294 307 287 263 256 260 254 247 247 240 220 252 310 14 61 87 69 32 88 93 109 128 131 150 170 186 204 214 221 224 227 234 239 242 240 235
235 257 285 295 305 301 302 301 302 293 285 281 279 272 245 231 228 220 213 227 218 2 60 71 65 61 80 83 91 115 125 140 151 158 164 176 206 234 241 242 244 244 239
28 4 335 357 323 309 313 315 313 306 304 295 287 278 264 249 247 225 210 217 175 257 41 43 55 76 86 80 77 90 100 108 110 110 114 110 91 67 62 70 73 55 8
20 33 24 6 353 338 334 331 325 309 317 308 306 297 292 284 277 233 213 189 208 254 71 81 53 53 69 82 87 86 82 82 81 80 80 81 79 71 65 66 63 56 51
25 21 26 21 9 5 349 352 355 336 347 354 341 338 323 327 320 306 277 194 196 205 224 54 51 47 67 83 93 87 84 82 79 77 75 73 73 73 71 68 65 61 59
20 16 21 22 16 11 358 359 17 0 24 29 21 15 8 354 344 2 14 359 103 151 146 76 70 66 67 84 90 86 83 84 76 77 76 73 71 72 70 67 65 62 58
23 19 17 22 21 15 8 20 40 24 35 34 31 31 23 22 18 17 34 43 59 108 124 92 77 83 77 81 90 89 96 91 83 81 80 77 74 70 67 66 64 62 59
44 34 26 26 30 32 28 37 42 39 39 39 36 32 27 32 33 25 30 42 67 102 124 120 94 81 76 89 98 101 97 92 90 90 85 81 79 75 71 68 64 61 59
54 47 45 44 43 38 41 44 47 52 51 48 44 43 33 34 35 32 34 31 48 73 89 107 98 81 81 84 95 85 80 79 95 98 91 82 81 79 74 70 67 65 62
72 58 52 51 54 50 42 45 57 57 62 62 57 51 43 42 35 29 44 39 52 68 84 97 101 95 82 64 78 85 82 63 72 88 92 95 85 78 74 70 68 67 65
78 67 59 52 50 56 39 35 57 70 66 71 71 70 65 63 58 52 55 47 54 66 81 92 101 97 88 78 69 84 96 96 78 81 95 101 96 80 76 73 71 71 70
72 66 63 60 55 49 27 33 46 67 63 62 64 74 83 65 63 65 65 60 61 69 73 84 93 99 96 87 73 93 104 106 81 59 94 98 107 100 95 87 86 83 77
83 72 73 75 71 47 32 33 40 63 66 58 53 49 57 56 50 49 68 71 61 57 66 85 86 88 95 86 94 90 80 81 89 110 93 91 97 97 99 102 113 105 94
93 85 82 84 82 58 39 34 33 77 74 66 58 54 62 53 37 33 58 66 62 51 55 70 76 75 79 70 60 86 114 108 99 74 81 100 117 117 112 121 141 130 120
101 94 88 84 83 65 37 30 17 91 89 80 72 58 53 53 29 35 57 70 76 72 71 79 85 87 81 70 53 54 46 73 88 77 36 62 129 124 124 136 159 165 156
110 105 95 86 85 76 42 32 16 80 101 102 94 78 57 48 38 39 53 60 59 47 58 81 85 89 94 81 65 56 41 40 68 74 21 0 97 121 120 134 151 178 192